Location: Oshawa
(43.9000°N, 78.8670°W)
Time: 12:31:44
(UTC-05:00)

Cosmos 839 Rocket - Visible Passes

Search period start: 06 March 2015 00:00
Search period end: 16 March 2015 01:00
Orbit: 966 x 2087 km, 65.9° (Epoch: 04 March)

Date Brightness Start Highest point End Pass type
(mag) Time Alt. Az. Time Alt. Az. Time Alt. Az.
06 Mar 4.5 03:33:26 53° NNE 03:33:26 53° NNE 03:38:24 10° NNE visible
06 Mar 5.6 05:30:02 14° WNW 05:33:15 20° NNW 05:38:03 10° NNE visible
07 Mar 5.4 02:52:44 35° NE 02:52:44 35° NE 02:56:23 10° NE visible
07 Mar 5.1 04:49:20 25° WNW 04:50:43 27° NW 04:56:15 10° NNE visible
08 Mar 6.1 03:12:00 21° NE 03:12:00 21° NE 03:14:12 10° NE visible
08 Mar 4.8 05:08:36 37° NW 05:08:36 37° NW 05:14:28 10° NNE visible
08 Mar 6.0 07:07:51 10° NW 07:11:00 13° NNW 07:14:16 10° NNE visible
09 Mar 6.6 02:31:15 12° ENE 02:31:15 12° ENE 02:31:42 10° NE visible
09 Mar 4.8 04:27:52 43° N 04:27:52 43° N 04:32:38 10° NNE visible
09 Mar 5.9 06:24:28 10° WNW 06:28:12 16° NNW 06:32:17 10° NNE visible
10 Mar 5.4 03:47:05 35° NNE 03:47:05 35° NNE 03:50:45 10° NNE visible
10 Mar 5.6 05:43:41 18° NW 05:45:32 20° NNW 05:50:26 10° NNE visible
11 Mar 6.0 03:06:17 24° NE 03:06:17 24° NE 03:08:43 10° NE visible
11 Mar 5.3 05:02:53 27° NW 05:03:01 27° NW 05:08:38 10° NNE visible
11 Mar 6.2 07:03:26 10° NNW 07:06:11 12° N 07:09:03 10° NNE visible
12 Mar 6.5 02:25:28 15° NE 02:25:28 15° NE 02:26:31 10° NE visible
12 Mar 5.2 04:22:03 34° NNW 04:22:03 34° NNW 04:26:50 10° NNE visible
12 Mar 6.1 06:20:02 10° NW 06:23:18 14° NNW 06:26:41 10° NNE visible
13 Mar 5.4 03:41:14 33° N 03:41:14 33° N 03:45:00 10° NNE visible
13 Mar 5.9 05:37:49 13° NW 05:40:30 16° NNW 05:44:41 10° NNE visible
14 Mar 5.9 03:00:22 26° NNE 03:00:22 26° NNE 03:03:05 10° NNE visible
14 Mar 5.6 04:56:57 20° NW 04:57:50 21° NNW 05:02:49 10° NNE visible
14 Mar 6.4 06:58:34 10° NNW 07:01:24 12° N 07:04:28 10° NNE visible
15 Mar 6.3 02:19:30 18° NE 02:19:30 18° NE 02:21:04 10° NE visible
15 Mar 5.5 04:16:05 27° NNW 04:16:05 27° NNW 04:21:01 10° NNE visible
15 Mar 6.3 06:15:36 10° NNW 06:18:28 13° N 06:21:28 10° NNE visible
